Radiation Dose at Monitoring Post of Fukushima Daini Nuclear Power Station
Date,Time,MP-1(microSv/h),MP-2(microSv/h),MP-3(microSv/h),MP-4(microSv/h),MP-5(microSv/h),MP-6(microSv/h),MP-7(microSv/h),Wind Direction,Wind Velocity(m/s),Rain
2019/01/23,00:00,0.219,0.197,0.323,0.301,0.281,0.160,0.097,west-northwest,1.8,No
2019/01/23,00:10,0.220,0.198,0.322,0.302,0.280,0.159,0.096,west-northwest,1.9,No
2019/01/23,00:20,0.219,0.199,0.321,0.301,0.280,0.160,0.096,west-northwest,0.9,No
2019/01/23,00:30,0.219,0.197,0.322,0.301,0.281,0.160,0.096,-,CALM,No
2019/01/23,00:40,0.219,0.198,0.322,0.300,0.279,0.159,0.097,west,2.5,No
2019/01/23,00:50,0.219,0.197,0.323,0.300,0.281,0.160,0.097,west,2.2,No
2019/01/23,01:00,0.218,0.198,0.322,0.301,0.280,0.161,0.096,west,2.6,No
2019/01/23,01:10,0.220,0.198,0.323,0.301,0.280,0.160,0.097,west,3.5,No
2019/01/23,01:20,0.220,0.199,0.321,0.302,0.280,0.160,0.097,west-northwest,3.3,No
2019/01/23,01:30,0.220,0.196,0.322,0.301,0.280,0.160,0.096,west,3.7,No
2019/01/23,01:40,0.218,0.199,0.324,0.301,0.281,0.160,0.097,west,3.6,No
2019/01/23,01:50,0.219,0.197,0.322,0.302,0.281,0.159,0.097,west-northwest,3.7,No
2019/01/23,02:00,0.218,0.198,0.322,0.300,0.281,0.160,0.097,west-northwest,2.4,No
2019/01/23,02:10,0.220,0.199,0.323,0.301,0.280,0.160,0.097,west,2.2,No
2019/01/23,02:20,0.220,0.198,0.321,0.301,0.280,0.159,0.097,west,2.6,No
2019/01/23,02:30,0.219,0.197,0.322,0.300,0.280,0.159,0.097,west,4.3,No
2019/01/23,02:40,0.218,0.197,0.321,0.301,0.281,0.160,0.097,west,4.9,No
2019/01/23,02:50,0.218,0.197,0.322,0.301,0.280,0.160,0.097,west,3.9,No
2019/01/23,03:00,0.220,0.198,0.322,0.301,0.280,0.159,0.097,west,4.3,No
2019/01/23,03:10,0.219,0.198,0.321,0.301,0.280,0.159,0.097,west,3.7,No
2019/01/23,03:20,0.219,0.197,0.321,0.301,0.281,0.159,0.097,west,5.6,No
2019/01/23,03:30,0.219,0.198,0.323,0.301,0.280,0.160,0.096,west,6.1,No
2019/01/23,03:40,0.220,0.197,0.322,0.301,0.281,0.159,0.097,west,7.0,No
2019/01/23,03:50,0.219,0.199,0.321,0.300,0.281,0.159,0.097,west-northwest,5.8,No
2019/01/23,04:00,0.219,0.198,0.322,0.302,0.280,0.159,0.096,west-northwest,4.3,No
2019/01/23,04:10,0.220,0.197,0.322,0.301,0.280,0.160,0.096,west-northwest,3.9,No
2019/01/23,04:20,0.219,0.199,0.321,0.299,0.281,0.159,0.096,west-northwest,3.5,No
2019/01/23,04:30,0.220,0.198,0.321,0.300,0.280,0.160,0.096,west-northwest,4.6,No
2019/01/23,04:40,0.219,0.197,0.321,0.300,0.281,0.159,0.096,west-northwest,5.5,No
2019/01/23,04:50,0.220,0.198,0.322,0.301,0.281,0.159,0.097,west-northwest,4.5,No
2019/01/23,05:00,0.220,0.197,0.322,0.299,0.280,0.159,0.096,west-northwest,3.8,No
2019/01/23,05:10,0.220,0.197,0.322,0.301,0.279,0.159,0.096,west-northwest,4.8,No
2019/01/23,05:20,0.219,0.198,0.322,0.301,0.280,0.160,0.096,west,5.4,No
2019/01/23,05:30,0.220,0.197,0.321,0.300,0.280,0.159,0.096,west,4.7,No
2019/01/23,05:40,0.219,0.198,0.322,0.301,0.281,0.159,0.096,west,6.2,No
2019/01/23,05:50,0.219,0.198,0.322,0.301,0.279,0.159,0.096,west-northwest,7.3,No
2019/01/23,06:00,0.219,0.197,0.320,0.301,0.280,0.159,0.097,west-northwest,5.3,No
2019/01/23,06:10,0.220,0.197,0.323,0.301,0.280,0.160,0.096,west-northwest,4.5,No
2019/01/23,06:20,0.219,0.198,0.321,0.301,0.280,0.159,0.097,west-northwest,4.6,No
2019/01/23,06:30,0.219,0.197,0.321,0.300,0.280,0.159,0.097,east-southeast,1.3,No
2019/01/23,06:40,0.219,0.198,0.322,0.301,0.281,0.158,0.097,east,2.1,No
2019/01/23,06:50,0.218,0.198,0.323,0.301,0.282,0.160,0.096,north-northeast,1.4,No
2019/01/23,07:00,0.220,0.197,0.322,0.301,0.280,0.159,0.097,east-southeast,0.7,No
2019/01/23,07:10,0.219,0.197,0.322,0.301,0.280,0.158,0.097,east-southeast,0.9,No
2019/01/23,07:20,0.220,0.198,0.323,0.300,0.282,0.159,0.096,east,0.9,No
2019/01/23,07:30,0.219,0.198,0.321,0.302,0.281,0.159,0.096,southwest,1.1,No
2019/01/23,07:40,0.219,0.197,0.321,0.301,0.278,0.159,0.097,east-southeast,0.9,No
2019/01/23,07:50,0.219,0.198,0.322,0.300,0.279,0.158,0.096,east-southeast,0.9,No
2019/01/23,08:00,0.220,0.198,0.321,0.300,0.281,0.160,0.096,east-southeast,1.9,No
2019/01/23,08:10,0.219,0.197,0.322,0.300,0.280,0.159,0.096,southeast,1.7,No
2019/01/23,08:20,0.219,0.198,0.323,0.301,0.280,0.160,0.096,south-southeast,0.9,No
2019/01/23,08:30,0.219,0.197,0.322,0.300,0.280,0.159,0.096,south-southeast,1.8,No
2019/01/23,08:40,0.218,0.198,0.321,0.300,0.281,0.159,0.097,south-southwest,2.0,No
2019/01/23,08:50,0.219,0.199,0.322,0.301,0.280,0.158,0.097,southwest,1.9,No
2019/01/23,09:00,0.219,0.198,0.321,0.299,0.281,0.158,0.096,south-southwest,2.2,No
2019/01/23,09:10,0.220,0.197,0.321,0.299,0.282,0.158,0.097,south,2.3,No
2019/01/23,09:20,0.217,0.197,0.322,0.300,0.281,0.159,0.097,southeast,3.0,No
2019/01/23,09:30,0.218,0.198,0.321,0.301,0.281,0.159,0.096,south-southeast,3.0,No
2019/01/23,09:40,0.218,0.197,0.321,0.299,0.281,0.159,0.096,southeast,3.3,No
2019/01/23,09:50,0.218,0.196,0.321,0.299,0.280,0.159,0.096,south-southeast,2.8,No
2019/01/23,10:00,0.219,0.197,0.322,0.299,0.281,0.160,0.096,south-southwest,3.2,No
2019/01/23,10:10,0.219,0.198,0.321,0.300,0.280,0.160,0.096,south,5.7,No
2019/01/23,10:20,0.217,0.196,0.321,0.302,0.280,0.159,0.096,south,7.3,No
2019/01/23,10:30,0.218,0.197,0.322,0.300,0.281,0.159,0.096,south,6.6,No
2019/01/23,10:40,0.217,0.197,0.321,0.301,0.280,0.159,0.096,south,7.1,No
2019/01/23,10:50,0.217,0.196,0.321,0.301,0.279,0.159,0.096,south,7.8,No
2019/01/23,11:00,0.217,0.197,0.321,0.298,0.280,0.160,0.097,south,7.8,No
2019/01/23,11:10,0.219,0.196,0.322,0.299,0.280,0.160,0.095,south,5.7,No
2019/01/23,11:20,0.218,0.198,0.320,0.300,0.282,0.160,0.096,south,5.4,No
2019/01/23,11:30,0.218,0.197,0.319,0.299,0.280,0.159,0.097,south,7.1,No
2019/01/23,11:40,0.219,0.196,0.321,0.301,0.281,0.160,0.096,south-southeast,7.0,No
2019/01/23,11:50,0.217,0.197,0.320,0.301,0.280,0.159,0.096,south-southeast,7.4,No
2019/01/23,12:00,0.218,0.197,0.321,0.301,0.280,0.160,0.096,south-southeast,7.1,No
2019/01/23,12:10,0.218,0.198,0.320,0.301,0.280,0.159,0.096,south-southeast,7.5,No
2019/01/23,12:20,0.218,0.197,0.322,0.299,0.280,0.160,0.096,south-southeast,8.5,No
2019/01/23,12:30,0.217,0.196,0.322,0.301,0.281,0.161,0.096,south-southeast,9.2,No
2019/01/23,12:40,0.218,0.198,0.318,0.300,0.280,0.160,0.096,south-southeast,8.9,No
2019/01/23,12:50,0.218,0.198,0.320,0.300,0.281,0.161,0.097,south-southeast,8.4,No
2019/01/23,13:00,0.218,0.198,0.320,0.300,0.280,0.160,0.096,south-southeast,7.3,No
2019/01/23,13:10,0.217,0.198,0.320,0.300,0.283,0.160,0.096,south,7.9,No
2019/01/23,13:20,0.218,0.197,0.322,0.300,0.280,0.160,0.097,south,8.4,No
2019/01/23,13:30,0.216,0.197,0.320,0.300,0.282,0.159,0.096,south,7.5,No
2019/01/23,13:40,0.218,0.198,0.322,0.301,0.283,0.160,0.096,south-southwest,8.1,No
2019/01/23,13:50,0.217,0.197,0.322,0.299,0.279,0.160,0.096,south,8.8,No
2019/01/23,14:00,0.218,0.196,0.321,0.300,0.281,0.160,0.096,south,8.6,No
2019/01/23,14:10,0.217,0.198,0.321,0.301,0.278,0.159,0.097,south,8.8,No
2019/01/23,14:20,0.218,0.196,0.320,0.300,0.283,0.160,0.096,south,8.4,No
2019/01/23,14:30,0.218,0.197,0.322,0.302,0.281,0.159,0.096,south,8.5,No
2019/01/23,14:40,0.218,0.198,0.322,0.300,0.283,0.160,0.096,south-southwest,10.4,No
2019/01/23,14:50,0.219,0.197,0.322,0.300,0.282,0.159,0.095,south,10.1,No
2019/01/23,15:00,0.218,0.199,0.322,0.302,0.282,0.160,0.096,south,10.0,No
2019/01/23,15:10,0.217,0.198,0.320,0.301,0.283,0.161,0.096,south,10.9,No
2019/01/23,15:20,0.219,0.198,0.321,0.300,0.281,0.160,0.097,south,8.5,No
2019/01/23,15:30,0.219,0.199,0.322,0.302,0.281,0.160,0.097,south,9.7,No
2019/01/23,15:40,0.219,0.199,0.320,0.301,0.281,0.160,0.096,south,8.8,No
2019/01/23,15:50,0.219,0.198,0.323,0.301,0.280,0.159,0.097,south,9.3,No
2019/01/23,16:00,0.220,0.199,0.323,0.302,0.281,0.160,0.097,south,8.5,No
2019/01/23,16:10,0.218,0.198,0.321,0.301,0.283,0.160,0.096,south,8.6,No
2019/01/23,16:20,0.218,0.196,0.321,0.300,0.282,0.161,0.096,south,8.1,No
2019/01/23,16:30,0.218,0.198,0.322,0.301,0.283,0.161,0.096,south-southwest,7.4,No
2019/01/23,16:40,0.218,0.198,0.323,0.302,0.283,0.159,0.097,south,7.0,No
2019/01/23,16:50,0.219,0.197,0.321,0.301,0.281,0.160,0.096,south-southwest,7.7,No
2019/01/23,17:00,0.218,0.198,0.322,0.301,0.281,0.159,0.097,south-southwest,6.2,No
2019/01/23,17:10,0.218,0.198,0.322,0.301,0.283,0.160,0.097,south,5.7,No
2019/01/23,17:20,0.220,0.198,0.321,0.301,0.281,0.160,0.096,south,6.3,No
2019/01/23,17:30,0.219,0.196,0.321,0.301,0.282,0.160,0.096,south,6.1,No
2019/01/23,17:40,0.219,0.200,0.321,0.300,0.281,0.161,0.097,south-southwest,7.5,No
2019/01/23,17:50,0.220,0.198,0.320,0.302,0.282,0.161,0.096,south-southwest,6.7,No
2019/01/23,18:00,0.220,0.198,0.322,0.301,0.281,0.159,0.096,south-southwest,6.2,No
2019/01/23,18:10,0.219,0.197,0.322,0.302,0.282,0.161,0.097,south-southwest,5.9,No
2019/01/23,18:20,0.219,0.198,0.323,0.303,0.282,0.161,0.096,south-southwest,5.3,No
2019/01/23,18:30,0.218,0.198,0.320,0.301,0.281,0.161,0.097,south-southwest,5.9,No
2019/01/23,18:40,0.218,0.198,0.320,0.301,0.283,0.161,0.097,south-southwest,5.0,No
2019/01/23,18:50,0.220,0.197,0.322,0.303,0.282,0.160,0.097,south-southwest,4.9,No
2019/01/23,19:00,0.219,0.199,0.323,0.303,0.281,0.160,0.097,south-southwest,5.1,No
2019/01/23,19:10,0.218,0.199,0.322,0.303,0.280,0.161,0.097,south-southwest,5.3,No
2019/01/23,19:20,0.219,0.197,0.322,0.300,0.281,0.159,0.097,southwest,5.4,No
2019/01/23,19:30,0.220,0.198,0.322,0.301,0.282,0.160,0.097,west,2.9,No
2019/01/23,19:40,0.219,0.199,0.322,0.303,0.281,0.160,0.097,west,3.4,No
2019/01/23,19:50,0.219,0.198,0.321,0.302,0.282,0.160,0.097,west,2.0,No
2019/01/23,20:00,0.219,0.197,0.321,0.302,0.280,0.159,0.097,north-northwest,2.2,No
2019/01/23,20:10,0.219,0.198,0.323,0.303,0.281,0.160,0.097,north,2.9,No
2019/01/23,20:20,0.219,0.199,0.322,0.301,0.282,0.161,0.097,west-northwest,4.7,No
2019/01/23,20:30,0.219,0.198,0.321,0.302,0.282,0.160,0.097,west-northwest,6.5,No
2019/01/23,20:40,0.220,0.199,0.321,0.301,0.281,0.161,0.096,west-northwest,7.3,No
2019/01/23,20:50,0.220,0.198,0.323,0.302,0.281,0.160,0.098,west-northwest,5.1,No
2019/01/23,21:00,0.219,0.199,0.322,0.302,0.280,0.159,0.097,northwest,4.4,No
2019/01/23,21:10,0.220,0.198,0.321,0.302,0.282,0.160,0.098,north-northwest,4.7,No
2019/01/23,21:20,0.219,0.199,0.323,0.301,0.282,0.161,0.097,north-northwest,5.8,No
2019/01/23,21:30,0.219,0.196,0.321,0.302,0.281,0.160,0.097,north-northwest,9.0,No
2019/01/23,21:40,0.220,0.198,0.322,0.301,0.281,0.159,0.097,northwest,8.9,No
2019/01/23,21:50,0.220,0.197,0.321,0.301,0.282,0.160,0.097,northwest,9.5,No
2019/01/23,22:00,0.220,0.198,0.322,0.302,0.282,0.159,0.097,northwest,10.3,No
2019/01/23,22:10,0.220,0.197,0.322,0.302,0.281,0.160,0.097,northwest,8.4,No
2019/01/23,22:20,0.219,0.198,0.324,0.302,0.281,0.161,0.097,northwest,9.2,No
2019/01/23,22:30,0.220,0.198,0.322,0.302,0.281,0.160,0.097,northwest,10.7,No
2019/01/23,22:40,0.219,0.197,0.321,0.301,0.282,0.160,0.096,northwest,9.7,No
2019/01/23,22:50,0.219,0.197,0.323,0.301,0.282,0.160,0.096,northwest,9.2,No
2019/01/23,23:00,0.219,0.198,0.324,0.302,0.281,0.162,0.097,north-northwest,9.3,No
2019/01/23,23:10,0.220,0.198,0.322,0.301,0.283,0.160,0.096,north-northwest,8.1,No
2019/01/23,23:20,0.220,0.198,0.322,0.301,0.282,0.160,0.096,north-northwest,9.3,No
2019/01/23,23:30,0.220,0.199,0.322,0.302,0.280,0.160,0.097,north-northwest,9.5,No
2019/01/23,23:40,0.219,0.198,0.323,0.302,0.280,0.160,0.097,northwest,9.5,No
2019/01/23,23:50,0.219,0.198,0.323,0.301,0.281,0.160,0.097,northwest,10.3,No
